Simultaneous Nadir Overpasses (SNOs) Predictions

Prediction of SNOs between GOES-17 and NOAA-19 Satellite Orbit:

Table of predicted SNOs for the next 14.0 days since TLE Epoch: 2/28/2020
Index Date Time (GOES-17) GOES-17 Lat,Lon NOAA-19 Lat,Lon Distance(km) Time Diff (sec)
1 02/29/2020 14:31:28 0.01,-137.22 -0.86,-133.43 433.38 80
2 03/02/2020 03:01:36 -0.01,-137.21 -0.98,-141.27 463.82 80
3 03/03/2020 02:49:57 -0.00,-137.21 -0.29,-138.43 138.78 80
4 03/04/2020 02:40:56 -0.00,-137.21 0.35,-135.57 186.08 80
5 03/06/2020 14:59:14 0.01,-137.19 0.79,-140.53 380.97 80
6 03/07/2020 14:47:35 0.01,-137.18 0.12,-137.68 56.85 80
7 03/08/2020 14:38:35 0.01,-137.17 -0.56,-134.84 267.16 80
8 03/11/2020 02:57:01 -0.01,-137.13 -0.63,-139.82 307.26 80
9 03/12/2020 02:48:00 -0.01,-137.11 0.00,-136.96 16.63 80
10 03/13/2020 02:36:21 -0.01,-137.09 0.70,-134.12 340.09 80




NCC Satellite Simultaneous Nadir Overpasses (SNOs) Prediction Service
